Погода в Великой Андрусовке

Украина / Кировоградская область     49°03′02″N   32°57′27″E
темп.,
°C
ветер,
м/с
пор.,
м/с
влажн.,
%
обл.,
%
осадки,
мм/ч
давл.,
гПа
погр.,
м
13 апреля, вт
вт1300:00+10ю2380100 0.0 102163
03:00+9ююв2383100 0.0 102180
06:00+9юв2385100 0.0 102162
09:00+10юв348089 0.0 1021411
12:00+13ююв356497 0.1 10201121
15:00+13ю4564100 0.1 1019887
18:00+13ю3467100 0.1 1019356
21:00+11ююз2578100 0.1 1019177
14 апреля, ср
ср1400:00+10ю3582100 0.0 1018188
03:00+9ю2281100 0.0 101871
06:00+9ю228292 0.0 101737
09:00+11ю237568 0.0 1017445
12:00+14ююв345647 0.0 10161371
15:00+15ююз1350100 0.1 10151422
18:00+14ююв236151 0.1 1014764
21:00+12вюв356098 0.2 101477
15 апреля, чт
чт1500:00+10ююв4968100 0.0 1014243
03:00+8юв3877100 0.0 1013264
06:00+8вюв3583100 0.0 1013166
09:00+8вюв4788100 0.3 1013364
12:00+10юв5783100 0.3 1012643
15:00+10юв5886100 1.9 1012594
18:00+10ю4773100 0.3 1011787
21:00
16 апреля, пт
пт1600:00+8ююв4792100 0.1 1011402
03:00+7ю5791100 0.2 1011471
06:00+6ю588692 0.1 1011459
09:00+6ю4685100 0.1 1011681
12:00+6ююв5689100 0.3 1012895
15:00+4ю5895100 0.9 1013777
18:00+4ю5796100 0.6 1014643
21:00+6ююв127929 0.1 1016103
17 апреля, сб
сб1700:00+4ю3697100 0.6 1015607
03:00+4ю3697100 1.4 1016651
06:00+4ююв2497100 1.0 1017638
09:00+5ююв2394100 1.3 1018516
12:00+7юв1277100 0.1 1019687
15:00+8св337479 0.3 1020615
18:00+9ссв337117 0.0 1020516
21:00+7ссз228096 0.0 102150